Regional Weather Roundup
Issued by NWS San Angelo, TX

Home | Current Version | Previous Version | Text Only | Print | Product List | Glossary On
Versions: 1 2 3 4 5 6 7 8 9 10 11 12 13 14 15 16 17 18 19 20 21 22 23 24 25 26 27 28 29 30 31 32 33 34 35 36 37 38 39 40 41 42 43 44 45 46 47 48 49 50
000
ASUS44 KSJT 260410
RWRSJT
WEST CENTRAL TEXAS REGIONAL WEATHER ROUNDUP
NATIONAL WEATHER SERVICE SAN ANGELO TX
1000 PM CST SUN JAN 25 2015

NOTE: "FAIR" INDICATES FEW OR NO CLOUDS BELOW 12,000 FEET WITH NO
SIGNIFICANT WEATHER AND/OR OBSTRUCTIONS TO VISIBILITY.

TXZ049-054-064>066-071>073-076>078-098-099-113-114-127-128-139-140-
154-155-168>170-260500
...LOCATIONS ACROSS WEST CENTRAL TEXAS...

CITY           SKY/WX    TMP DP  RH WIND       PRES   REMARKS
SAN ANGELO     PTCLDY    46  34  62 CALM      30.25S
ABILENE        CLEAR     46  31  55 SW7       30.23S
DYESS AFB      CLEAR     47  32  55 SW9       30.24R
JUNCTION       CLEAR     42  33  70 W6        30.26R WCI  38
SWEETWATER     CLEAR     52  27  37 SW7       30.28S
BROWNWOOD      CLEAR     41  32  70 NE3       30.24R
COLEMAN        CLEAR     47  33  57 W8        30.24S
SONORA         CLEAR     37  32  81 CALM      30.31S
OZONA          FAIR      37  32  81 CALM      30.30S
BRADY          CLEAR     43  34  70 NW8       30.23S WCI  38
$$

TEXAS PANHANDLE/OKLAHOMA PANHANDLE

CITY           SKY/WX    TMP DP  RH WIND       PRES   REMARKS
AMARILLO       CLEAR     34  29  82 SW6       30.24R WCI  29
BORGER         CLEAR     41  32  70 W8        30.21S WCI  36
CANADIAN       CLEAR     42  34  72 SW5       30.18S WCI  39
DALHART        CLEAR     37  29  72 W14       30.23R WCI  28
DUMAS          CLEAR     36  30  79 W14       30.22R WCI  27
GUYMON         NOT AVBL
HEREFORD       CLEAR     34  31  92 W6        30.26R WCI  28
PAMPA          CLEAR     35  31  85 W9        30.21S WCI  28
PERRYTON         N/A     37  32  82 SW7       30.17S WCI  31
$$

SOUTHERN PANHANDLE/SOUTH PLAINS/ROLLING PLAINS

CITY           SKY/WX    TMP DP  RH WIND       PRES   REMARKS
LUBBOCK        CLEAR     40  32  73 W5        30.26R WCI  37
SNYDER         CLEAR    N/A N/A N/A CALM      30.27R
CHILDRESS      CLEAR     46  34  62 W8        30.21R
SEMINOLE       CLEAR     40  31  69 W8        30.29F WCI  35
$$

PERMIAN BASIN

CITY           SKY/WX    TMP DP  RH WIND       PRES   REMARKS
MIDLAND        PTCLDY    42  32  67 W7        30.28S WCI  38
ODESSA         PTCLDY    46  27  47 W3        30.29S
WINK           PTCLDY    41  26  55 N3        30.28S
$$

FAR WEST/SOUTHWEST MOUNTAINS/TRANS PECOS

CITY           SKY/WX    TMP DP  RH WIND       PRES   REMARKS
ALPINE         PTCLDY    34  30  84 SW5       30.36S WCI  30
DRYDEN           N/A     46  34  62 W6        30.25S
EL PASO        MOCLDY    47  28  47 NE5       30.27S
FORT STOCKTON  CLEAR     44  32  62 S7        30.29R
GUADALUPE PASS NOT AVBL
MARFA          PTCLDY    30  27  86 N8        30.32S WCI  23
PECOS          FAIR      39  32  75 SW3       30.29S
$$

DALLAS/FORT WORTH METROPLEX

CITY           SKY/WX    TMP DP  RH WIND       PRES   REMARKS
DFW AIRPORT    CLEAR     50  24  36 NW8       30.16R
FTW MEACHAM    CLEAR     48  26  42 W3        30.17R
DAL-EXECUTIVE  CLEAR     50  25  37 W7        30.15R
GRAND PRAIRIE  CLEAR     51  29  43 W3        30.18R
ADDISON        CLEAR     50  28  41 N6        30.18R
MESQUITE       CLEAR     49  27  41 NW8       30.16R
LANCASTER      CLEAR     46  26  45 W6        30.17R
$$

NORTH CENTRAL TEXAS

CITY           SKY/WX    TMP DP  RH WIND       PRES   REMARKS
SHRMAN/DENISON CLEAR     44  32  62 N5        30.16R
GAINESVILLE    CLEAR     43  28  53 NW5       30.18R
BRIDGEPORT     CLEAR     43  27  54 W5        30.19R
DENTON         CLEAR     44  26  49 W8        30.17R WCI  39
WAXAHACHIE     CLEAR     47  29  49 NW6       30.18R
GRANBURY       CLEAR     48  29  49 CALM      30.20R
$$

WESTERN NORTH TEXAS

CITY           SKY/WX    TMP DP  RH WIND       PRES   REMARKS
WICHITA FALLS  CLEAR     46  25  43 NW6       30.17R
VERNON         CLEAR     46  24  42 N3        30.20R
BRECKENRIDGE   CLEAR     48  31  50 W5        30.21R
COMANCHE       CLEAR     52  31  45 W8        30.22R
$$

CENTRAL AND SOUTH CENTRAL TEXAS

CITY           SKY/WX    TMP DP  RH WIND       PRES   REMARKS
AUSTIN/BERGSTM CLEAR     50  33  52 W5        30.19R
WACO           CLEAR     42  31  64 W9        30.19R WCI  37
HILLSBORO      CLEAR     43  28  55 CALM      30.18R
TEMPLE         PTCLDY    46  27  46 W5        30.19R
KILLEEN-GRAY   PTCLDY    58  28  31 NW13      30.20R
FORT HOOD      PTCLDY    51  30  44 MISG      30.19R
GEORGETOWN     NOT AVBL
LAGO VISTA     FAIR      57  29  34 NW7       30.20R
SAN MARCOS     CLEAR     46  34  61 NW6       30.19S
NEW BRAUNFELS  CLEAR     51  35  54 NW9       30.18R
RANDOLPH AFB   CLEAR     48  37  66 NW7       30.21R
SAN ANTONIO    MOCLDY    50  37  61 W9        30.21R
STINSON        PTCLDY    54  36  50 NW6       30.20R
PLEASANTON     NOT AVBL
LA GRANGE      CLEAR     53  36  51 NW6       30.16R
GIDDINGS       NOT AVBL
$$

EAST TEXAS

CITY           SKY/WX    TMP DP  RH WIND       PRES   REMARKS
PARIS          CLEAR     46  28  49 N8        30.12R
CLARKSVILLE    NOT AVBL
TYLER          CLEAR     49  27  42 NW8       30.13R
LONGVIEW       CLEAR     49  27  42 NW9       30.10R
PALESTINE      CLEAR     44  32  62 CALM      30.16R
NACOGDOCHES    CLEAR     48  27  43 NW8       30.12R
$$

TEXAS HILL COUNTRY AND EDWARDS PLATEAU

CITY           SKY/WX    TMP DP  RH WIND       PRES   REMARKS
LLANO          CLEAR     48  32  53 W7        30.25S
HORSESHOE BAY  FAIR      51  30  43 W5        30.21S
KERRVILLE      CLEAR     42  35  76 CALM      30.24S
FREDERICKSBRG  CLEAR     42  33  70 W3        30.23S
ROCKSPRINGS    NOT AVBL
HONDO          PTCLDY    45  37  73 N5        30.25R
UVALDE         PTCLDY    52  34  51 N5        30.24S
DEL RIO        PTCLDY    50  38  63 W3        30.24R
$$

SOUTHEAST TEXAS

CITY           SKY/WX    TMP DP  RH WIND       PRES   REMARKS
COLLEGE STN    CLEAR     53  27  36 NW8       30.17R
CALDWELL       CLEAR     55  27  33 NW9       30.21R
CROCKETT       CLEAR     52  32  46 W3        30.17R
BRENHAM        CLEAR     53  32  43 NW8       30.17R
HUNTSVILLE     PTCLDY    56  25  30 NW8       30.15R
CONROE         CLEAR     56  26  31 NW9       30.14R
HOUSTON BUSH   PTCLDY    58  28  32 NW10      30.13R
HOUSTON HOBBY  PTCLDY    59  30  33 N14       30.12R
PERLAND        CLEAR     60  30  32 VRB7      30.14R
WHARTON        CLEAR     53  40  61 NW10      30.16R
$$

THE UPPER TEXAS COAST

CITY           SKY/WX    TMP DP  RH WIND       PRES   REMARKS
ORANGE         CLEAR     57  29  33 NW9       30.10R
PORT ARTHUR    CLEAR     57  29  34 NW13      30.08R
GALVESTON      CLEAR     53  47  79 W6        30.13R
ANGLETON       CLEAR     56  40  55 NW5       30.14R
BAY CITY       CLEAR     52  46  79 NW6       30.15R
$$

TEXAS COASTAL BEND, RIO GRANDE PLAINS DEEP SOUTH TEXAS

CITY           SKY/WX    TMP DP  RH WIND       PRES   REMARKS
VICTORIA       CLEAR     51  42  71 W9        30.18R
BEEVILLE       FAIR      55  42  62 NW6       30.19R
ROCKPORT       CLEAR     56  42  59 W7        30.17R
PORT ARANSAS   PTCLDY    56  46  69 W5        30.19R
PORT LAVACA    CLEAR     52  45  76 W7        30.17R
CORPUS CHRISTI CLOUDY    51  44  77 NW7       30.19R
KINGSVILLE NAS MOCLDY    56  42  59 W6        30.20R
COTULLA        MOCLDY    55  41  59 NW6       30.22R
LAREDO         NOT AVBL
BROWNSVILLE    CLOUDY    58  50  75 CALM      30.21R
PORT ISABEL    CLOUDY    56  52  86 SW3       30.20R
HEBBRONVILLE   CLOUDY    54  38  55 NW7       30.23R
MCALLEN        CLOUDY    59  44  57 NW5       30.23R
WESLACO        CLOUDY    57  45  63 NW6       30.21R
FALFURRIAS     CLOUDY    55  39  53 W5        30.21R
EDINBURG       CLOUDY    56  42  58 NW5       30.22R
$$


USA.gov is the U.S. government's official web portal to all federal, state and local government web resources and services.